Weather History for Perry, FL

Change the Weather History Date:

Sunday, July 28, 2013

  Actual Average (KCTY) Record (KCTY)
Temperature  
Mean Temperature 80 °F 82 °F  
Max Temperature 91 °F 91 °F 98 °F (2010)
Min Temperature 71 °F 72 °F 69 °F (2000)
Degree Days  
Heating Degree Days 0 0  
Month to date heating degree days 0  
Since 1 June heating degree days 0  
Since 1 July heating degree days 0  
Cooling Degree Days 16 17  
Month to date cooling degree days 460  
Year to date cooling degree days 1386  
Since 1 June cooling degree days 907  
Growing Degree Days 30 (Base 50)    
Moisture  
Dew Point 71 °F    
Average Humidity 78    
Maximum Humidity 100    
Minimum Humidity 48    
Precipitation  
Precipitation 0.03 in 0.20 in 0.21 in (2001)
Month to date precipitation 5.05  
Year to date precipitation 27.31  
Sea Level Pressure  
Sea Level Pressure 29.99 in    
Wind  
Wind Speed 2 mph (SW)    
Max Wind Speed 13 mph    
Max Gust Speed 17 mph    
Visibility 8 miles    
Events      
T = Trace of Precipitation, MM = Missing Value Source: NWS Daily Summary

Daily Weather History Graph

Daily Weather History Graph

Search for Another Location

Airport:

Trip Planner

Search our weather history database for the weather conditions in past years. The results will help you decide how hot, cold, wet, or windy it might be!

Date:

Astronomy

Jul. 28, 2013 Rise Set
Actual Time 6:50 AM EDT 8:30 PM EDT
Civil Twilight 6:24 AM EDT 8:56 PM EDT
Nautical Twilight 5:53 AM EDT 9:27 PM EDT
Astronomical Twilight 5:20 AM EDT 10:00 PM EDT
Moon No Moon Rise 12:58 PM EDT (7/28)
Length of Visible Light 14h 31m
Length of Day
13h 39m
Waning Gibbous, 61% of the Moon is Illuminated
Jul 28
Waning Gibbous
Jul 29
Last Quarter
Aug 6
New
Aug 14
First Quarter
Aug 20
Full

Hourly Weather History & Observations

Time (EDT) Temp. Heat Index Dew Point Humidity Pressure Visibility Wind Dir Wind Speed Gust Speed Precip Events Conditions
12:15 AM 73.4 °F - 71.6 °F 94% 29.96 in 5.0 mi Calm Calm - N/A   Clear
12:35 AM 73.4 °F - 71.6 °F 94% 29.96 in 5.0 mi Calm Calm - N/A   Clear
12:53 AM 75.0 °F - 72.0 °F 90% 29.94 in - WSW 3.5 mph - N/A   Unknown
12:55 AM 73.4 °F - 71.6 °F 94% 29.96 in 5.0 mi Calm Calm - N/A   Clear
1:15 AM 73.4 °F - 71.6 °F 94% 29.95 in 4.0 mi Calm Calm - N/A   Clear
1:35 AM 73.4 °F - 71.6 °F 94% 29.95 in 4.0 mi Calm Calm - N/A   Clear
1:53 AM 75.0 °F - 72.0 °F 90% 29.93 in - Calm Calm - N/A   Unknown
1:55 AM 73.4 °F - 71.6 °F 94% 29.95 in 5.0 mi Calm Calm - N/A   Clear
2:15 AM 73.4 °F - 71.6 °F 94% 29.95 in 5.0 mi Calm Calm - N/A   Clear
2:35 AM 73.4 °F - 71.6 °F 94% 29.95 in 5.0 mi Calm Calm - N/A   Clear
2:53 AM 75.0 °F - 72.0 °F 90% 29.94 in - Calm Calm - N/A   Unknown
2:55 AM 71.6 °F - 71.6 °F 100% 29.96 in 7.0 mi Calm Calm - N/A   Clear
3:15 AM 73.4 °F - 71.6 °F 94% 29.95 in 5.0 mi Calm Calm - N/A   Scattered Clouds
3:35 AM 73.4 °F - 71.6 °F 94% 29.95 in 5.0 mi Calm Calm - N/A   Mostly Cloudy
3:53 AM 75.0 °F - 72.0 °F 90% 29.94 in - Calm Calm - N/A   Unknown
3:55 AM 73.4 °F - 71.6 °F 94% 29.95 in 7.0 mi Calm Calm - N/A   Overcast
4:15 AM 73.4 °F - 71.6 °F 94% 29.95 in 7.0 mi Calm Calm - N/A   Mostly Cloudy
4:35 AM 73.4 °F - 71.6 °F 94% 29.95 in 7.0 mi Calm Calm - N/A   Mostly Cloudy
4:53 AM 75.0 °F - 71.1 °F 87% 29.94 in - Calm Calm - N/A   Unknown
4:55 AM 73.4 °F - 71.6 °F 94% 29.95 in 7.0 mi Calm Calm - N/A   Mostly Cloudy
5:15 AM 73.4 °F - 71.6 °F 94% 29.95 in 7.0 mi Calm Calm - N/A   Overcast
5:35 AM 73.4 °F - 71.6 °F 94% 29.96 in 7.0 mi Calm Calm - N/A   Mostly Cloudy
5:53 AM 75.0 °F - 72.0 °F 90% 29.94 in - Calm Calm - N/A   Unknown
5:55 AM 73.4 °F - 71.6 °F 94% 29.96 in 5.0 mi Calm Calm - N/A   Scattered Clouds
6:15 AM 73.4 °F - 71.6 °F 94% 29.96 in 4.0 mi Calm Calm - N/A   Mostly Cloudy
6:35 AM 73.4 °F - 71.6 °F 94% 29.96 in 5.0 mi Calm Calm - N/A   Scattered Clouds
6:53 AM 75.0 °F - 72.0 °F 90% 29.96 in - Calm Calm - 0.01 in   Unknown
6:55 AM 73.4 °F - 71.6 °F 94% 29.97 in 7.0 mi Calm Calm - N/A   Clear
7:15 AM 73.4 °F - 71.6 °F 94% 29.98 in 7.0 mi Calm Calm - N/A   Mostly Cloudy
7:35 AM 73.4 °F - 71.6 °F 94% 29.99 in 5.0 mi Calm Calm - N/A   Overcast
7:53 AM 75.9 °F - 72.0 °F 87% 29.98 in - Calm Calm - N/A   Unknown
7:55 AM 73.4 °F - 71.6 °F 94% 29.99 in 7.0 mi Calm Calm - N/A   Mostly Cloudy
8:15 AM 73.4 °F - 71.6 °F 94% 30.00 in 7.0 mi Calm Calm - N/A   Overcast
8:35 AM 73.4 °F - 71.6 °F 94% 30.00 in 10.0 mi NNE 3.5 mph - N/A   Overcast
8:53 AM 78.1 °F - 73.0 °F 84% 30.00 in - Calm Calm - 0.01 in   Unknown
8:55 AM 75.2 °F - 71.6 °F 89% 30.01 in 7.0 mi Calm Calm - N/A   Scattered Clouds
9:15 AM 75.2 °F - 71.6 °F 89% 30.01 in 10.0 mi Calm Calm - N/A   Clear
9:35 AM 77.0 °F - 71.6 °F 83% 30.01 in 10.0 mi Calm Calm - N/A   Clear
9:53 AM 80.1 °F 84.2 °F 73.0 °F 79% 30.00 in - Calm Calm - N/A   Unknown
9:55 AM 77.0 °F - 71.6 °F 83% 30.01 in 10.0 mi Calm Calm - N/A   Scattered Clouds
10:15 AM 78.8 °F - 71.6 °F 78% 30.01 in 10.0 mi Calm Calm - N/A   Scattered Clouds
10:35 AM 78.8 °F - 71.6 °F 78% 30.02 in 10.0 mi Calm Calm - N/A   Clear
10:53 AM 82.9 °F 88.0 °F 72.0 °F 69% 30.01 in - SE 3.5 mph - N/A   Unknown
10:55 AM 80.6 °F 84.6 °F 71.6 °F 74% 30.02 in 10.0 mi Calm Calm - N/A   Clear
11:15 AM 82.4 °F 87.2 °F 71.6 °F 70% 30.02 in 10.0 mi Calm Calm - N/A   Clear
11:35 AM 82.4 °F 87.2 °F 71.6 °F 70% 30.02 in 10.0 mi Calm Calm - N/A   Clear
11:53 AM 86.0 °F 90.1 °F 69.1 °F 57% 30.01 in - Calm Calm - N/A   Unknown
11:55 AM 82.4 °F 85.4 °F 68.0 °F 62% 30.02 in 10.0 mi Calm Calm - N/A   Clear
12:15 PM 84.2 °F 88.4 °F 69.8 °F 62% 30.02 in 10.0 mi Calm Calm - N/A   Clear
12:35 PM 86.0 °F 89.4 °F 68.0 °F 55% 30.02 in 10.0 mi West 3.5 mph - N/A   Clear
12:53 PM 89.1 °F 93.7 °F 69.1 °F 52% 30.01 in - SE 4.6 mph - 0.01 in   Unknown
12:55 PM 86.0 °F 89.4 °F 68.0 °F 55% 30.02 in 10.0 mi SE 4.6 mph - N/A   Clear
1:15 PM 86.0 °F 89.4 °F 68.0 °F 55% 30.01 in 10.0 mi Calm Calm - N/A   Scattered Clouds
1:35 PM 87.8 °F 91.4 °F 68.0 °F 52% 30.02 in 10.0 mi WSW 4.6 mph - N/A   Scattered Clouds
1:53 PM 90.0 °F 93.6 °F 68.0 °F 48% 30.01 in - SSW 3.5 mph - N/A   Unknown
1:55 PM 87.8 °F 90.4 °F 66.2 °F 49% 30.02 in 10.0 mi Calm Calm - N/A   Scattered Clouds
2:15 PM 87.8 °F 91.4 °F 68.0 °F 52% 30.01 in 10.0 mi WSW 6.9 mph - N/A   Scattered Clouds
2:35 PM 87.8 °F 92.6 °F 69.8 °F 55% 30.01 in 10.0 mi SW 8.1 mph - N/A   Scattered Clouds
2:53 PM 90.0 °F 97.9 °F 73.0 °F 57% 29.99 in - SSW 11.5 mph 17.3 mph N/A   Unknown
2:55 PM 87.8 °F 92.6 °F 69.8 °F 55% 30.00 in 10.0 mi SSW 10.4 mph - N/A   Scattered Clouds
3:15 PM 87.8 °F 93.8 °F 71.6 °F 58% 30.00 in 10.0 mi SW 10.4 mph - N/A   Clear
3:35 PM 86.0 °F 91.8 °F 71.6 °F 62% 30.00 in 10.0 mi WSW 6.9 mph - N/A   Clear
3:53 PM 88.0 °F 94.7 °F 72.0 °F 59% 29.97 in - WSW 9.2 mph - N/A   Unknown
3:55 PM 87.8 °F 92.6 °F 69.8 °F 55% 29.98 in 10.0 mi West 9.2 mph - N/A   Clear
4:15 PM 87.8 °F 93.8 °F 71.6 °F 58% 29.97 in 10.0 mi SW 9.2 mph - N/A   Scattered Clouds
4:35 PM 87.8 °F 93.8 °F 71.6 °F 58% 29.98 in 10.0 mi WSW 8.1 mph - N/A   Clear
4:53 PM 88.0 °F 94.7 °F 72.0 °F 59% 29.96 in - SW 9.2 mph - N/A   Unknown
4:55 PM 86.0 °F 91.8 °F 71.6 °F 62% 29.98 in 10.0 mi SW 8.1 mph - N/A   Clear
5:15 PM 86.0 °F 90.4 °F 69.8 °F 58% 29.98 in 10.0 mi SW 8.1 mph - N/A   Clear
5:35 PM 86.0 °F 91.8 °F 71.6 °F 62% 29.99 in 10.0 mi WSW 11.5 mph - N/A   Scattered Clouds
5:53 PM 88.0 °F 92.9 °F 70.0 °F 55% 29.98 in - SW 12.7 mph - N/A   Unknown
5:55 PM 86.0 °F 90.4 °F 69.8 °F 58% 30.00 in 10.0 mi WSW 11.5 mph - N/A   Scattered Clouds
6:15 PM 84.2 °F 88.4 °F 69.8 °F 62% 30.00 in 10.0 mi WSW 9.2 mph - N/A   Scattered Clouds
6:35 PM 84.2 °F 88.4 °F 69.8 °F 62% 30.00 in 10.0 mi SW 9.2 mph - N/A   Clear
6:53 PM 84.9 °F 91.4 °F 73.0 °F 67% 29.99 in - SSW 11.5 mph - N/A   Unknown
6:55 PM 82.4 °F 87.2 °F 71.6 °F 70% 30.01 in 10.0 mi SW 10.4 mph - N/A   Clear
7:15 PM 82.4 °F 88.2 °F 73.4 °F 74% 30.01 in 10.0 mi SW 8.1 mph - N/A   Clear
7:35 PM 80.6 °F 84.6 °F 71.6 °F 74% 30.02 in 10.0 mi SW 8.1 mph - N/A   Clear
7:53 PM 82.0 °F 87.4 °F 73.0 °F 74% 30.00 in - SW 6.9 mph - N/A   Unknown
7:55 PM 80.6 °F 84.6 °F 71.6 °F 74% 30.01 in 10.0 mi SW 6.9 mph - N/A   Clear
8:15 PM 80.6 °F 84.6 °F 71.6 °F 74% 30.01 in 10.0 mi Calm Calm - N/A   Clear
8:35 PM 78.8 °F - 71.6 °F 78% 30.02 in 10.0 mi SSE 3.5 mph - N/A   Clear
8:53 PM 79.0 °F - 73.0 °F 82% 30.01 in - South 3.5 mph - N/A   Unknown
8:55 PM 78.8 °F - 71.6 °F 78% 30.02 in 10.0 mi Calm Calm - N/A   Clear
9:15 PM 77.0 °F - 71.6 °F 83% 30.02 in 10.0 mi Calm Calm - N/A   Clear
9:35 PM 77.0 °F - 71.6 °F 83% 30.03 in 10.0 mi Calm Calm - N/A   Clear
9:53 PM 78.1 °F - 73.0 °F 84% 30.02 in - ESE 3.5 mph - N/A   Unknown
9:55 PM 77.0 °F - 71.6 °F 83% 30.03 in 10.0 mi Calm Calm - N/A   Scattered Clouds
10:15 PM 77.0 °F - 71.6 °F 83% 30.05 in 10.0 mi ESE 3.5 mph - N/A   Scattered Clouds
10:35 PM 77.0 °F - 71.6 °F 83% 30.05 in 10.0 mi Calm Calm - N/A   Clear
10:53 PM 78.1 °F - 73.0 °F 84% 30.04 in - Calm Calm - N/A   Unknown
10:55 PM 77.0 °F - 73.4 °F 89% 30.06 in 10.0 mi Calm Calm - N/A   Clear
11:15 PM 75.2 °F - 71.6 °F 89% 30.06 in 10.0 mi Calm Calm - N/A   Clear
11:35 PM 75.2 °F - 71.6 °F 89% 30.06 in 10.0 mi Calm Calm - N/A   Clear
11:53 PM 77.0 °F - 73.0 °F 88% 30.04 in - Calm Calm - N/A   Unknown
11:55 PM 73.4 °F - 71.6 °F 94% 30.06 in 10.0 mi Calm Calm - N/A   Clear